DELTA 1 DEB, 10709

Orbit data source: Space-Track

DELTA 1 DEB, 10709 is space debris in SSO originally from a launch on Thu, 29 Jul 1976 UTC launched from the Air Force Western Test Range (AFWTR). Debris objects in space refer to the collection of defunct objects orbiting the Earth. Examples of debris include non-operational satellites, rocket bodies, and fragments generated from explosions, collisions, or faulty payload assembly.

Loading next visibility...
Identifier
10709, 1976-077AE
Orbit
SSO
Country
Flag of USUS
Related business
Manufacturer
Unknown
Mission
Spacecraft
Bus & Motor
Unknown
Mass
Unknown
Launch date (UTC)
1976-07-29 (49 years ago)
Launch vehicle
Unknown
Launch site
Air Force Western Test Range (AFWTR)
Object type
Payload
Rocket body
Debris
Shape & HBR
Unknown
Radar Cross Section
Medium (>0.1 m² and <1 m²)

Expand to show TLE details & history
Last TLE update: 22 hours ago

TLE from 22 hours ago
0 DELTA 1 DEB
1 10709U 76077AE  25242.13054900 -.00000289  00000-0 -16783-2 0  9999
2 10709 101.9150 308.1423 0019427 359.1101  30.5646 12.46517665229763
Epoch: 2025-08-30T03:07Z
TLE epoch observation values (Epoch: 2025-08-30T03:07:59.433Z)
Latitude
29.12988°
Longitude
-84.14426°
Altitude
1,469.274 km
Speed
7.137 km/s
True Right ascension
20h 05m 41s
True Declination
28° 59' 50"
Sunlit
Object was in full shadow at epoch
Visualization orbit readout
Latitude
Unknown
Longitude
Unknown
Altitude
Unknown
Speed
Unknown
Apparent Right ascension
Unknown
Apparent Declination
Unknown
Sunlit
N/A
Visualization observer readout
Local Sidereal Time
16:42:00
Azimuth
Unknown
Elevation
Unknown
Doppler factor
Unknown
Orbital elements
Apogee altitude
1,491.915 km
Perigee altitude
1,461.396 km
Semi-major axis
7,854.793 km
Eccentricity
0.00194
Inclination
101.915°
RAAN
308.1423°
Arg. of periapsis
359.1101°
True anomaly
30.67804°
Mean anomaly
30.5646°
Eccentric anomaly
30.6213°
Mean motion
3.11775 °/min
Orbital period
115.47 mins
BSTAR
-0.0016783
Loading maneuver chart data...
Computing Atmospheric mass density...
Loading historical data...
Loading historical data...
Loading historical data...
Loading historical data...
Loading historical data...
Loading historical data...
Loading historical data...

Documentation

Showing up to 5 results
|